Weather History for Fort Drum, NY

Change the Weather History Date:

Friday, December 13, 2013

  Actual Average Record
Temperature  
Mean Temperature 7 °F -  
Max Temperature 20 °F 32 °F 53 °F (2001)
Min Temperature -8 °F 18 °F -11 °F (2008)
Degree Days  
Heating Degree Days 58    
Moisture  
Dew Point 7 °F    
Average Humidity 81    
Maximum Humidity 93    
Minimum Humidity 62    
Precipitation  
Precipitation 0.00 in - - ()
Sea Level Pressure  
Sea Level Pressure 30.09 in    
Wind  
Wind Speed 8 mph (North)    
Max Wind Speed 12 mph    
Max Gust Speed 21 mph    
Visibility 7 miles    
Events Snow    
Averages and records for this station are not official NWS values.
T = Trace of Precipitation, MM = Missing Value Source: NWS Daily Summary

Daily Weather History Graph

Daily Weather History Graph

Search for Another Location

Airport:

Trip Planner

Search our weather history database for the weather conditions in past years. The results will help you decide how hot, cold, wet, or windy it might be!

Date:

Astronomy

Dec. 13, 2013 Rise Set
Actual Time 7:29 AM EST 4:24 PM EST
Civil Twilight 6:56 AM EST 4:57 PM EST
Nautical Twilight 6:19 AM EST 5:34 PM EST
Astronomical Twilight 5:44 AM EST 6:09 PM EST
Moon 2:11 PM EST (12/13) 3:44 AM EST (12/13)
Length of Visible Light 10h 01m
Length of Day
8h 55m
Waxing Gibbous, 88% of the Moon is Illuminated
Dec 13
Waxing Gibbous
Dec 17
Full
Dec 25
Last Quarter
Jan 1
New
Jan 7
First Quarter

Hourly Weather History & Observations

Time (EST) Temp. Windchill Dew Point Humidity Pressure Visibility Wind Dir Wind Speed Gust Speed Precip Events Conditions
12:58 AM 20.1 °F 11.3 °F 13.6 °F 76% 29.92 in 10.0 mi WNW 6.9 mph 17.3 mph 0.00 in   Light Freezing Rain
1:28 AM 19.4 °F 7.9 °F 14.0 °F 80% 29.88 in 10.0 mi WNW 10.4 mph - N/A   Mostly Cloudy
1:58 AM 20.3 °F 9.0 °F 14.2 °F 77% 29.92 in 10.0 mi WNW 10.4 mph 20.7 mph 0.00 in   Overcast
2:43 AM 19.4 °F 9.5 °F 14.0 °F 80% 29.89 in 10.0 mi WNW 8.1 mph 18.4 mph N/A   Overcast
2:58 AM 19.9 °F 9.3 °F 14.4 °F 79% 29.93 in 8.0 mi WNW 9.2 mph 20.7 mph 0.00 in   Overcast
3:23 AM 19.4 °F 7.9 °F 15.8 °F 86% 29.89 in 6.0 mi WNW 10.4 mph - N/A Snow Light Snow
3:58 AM 18.5 °F 6.8 °F 14.5 °F 85% 29.94 in 6.0 mi West 10.4 mph 17.3 mph 0.00 in Snow Light Snow
4:09 AM 17.6 °F 6.4 °F 14.0 °F 86% 29.90 in 10.0 mi WNW 9.2 mph - N/A   Overcast
4:24 AM 19.4 °F 8.6 °F 14.0 °F 80% 29.90 in 10.0 mi WNW 9.2 mph - N/A   Overcast
4:34 AM 17.6 °F 8.2 °F 14.0 °F 86% 29.90 in 10.0 mi NW 6.9 mph - N/A   Overcast
4:58 AM 18.3 °F 8.2 °F 13.5 °F 81% 29.94 in 6.0 mi NW 8.1 mph - 0.00 in Snow Light Snow
5:58 AM 17.1 °F 8.7 °F 14.2 °F 88% 29.96 in 4.0 mi NNW 5.8 mph - 0.00 in Snow Light Snow
6:58 AM 16.0 °F 7.4 °F 12.9 °F 88% 29.99 in 9.0 mi North 5.8 mph - 0.00 in Snow Light Snow
7:58 AM 14.0 °F 8.2 °F 10.4 °F 86% 30.02 in 10.0 mi North 3.5 mph - 0.00 in Snow Light Snow
8:01 AM 14.0 °F 5.1 °F 12.2 °F 93% 29.98 in 10.0 mi North 5.8 mph - N/A   Overcast
8:11 AM 14.0 °F 6.5 °F 12.2 °F 93% 29.99 in 10.0 mi North 4.6 mph - N/A Snow Light Snow
8:36 AM 14.0 °F 8.2 °F 12.2 °F 93% 30.01 in 8.0 mi NNW 3.5 mph - N/A Snow Light Snow
8:58 AM 15.1 °F 9.4 °F 12.2 °F 88% 30.06 in 8.0 mi NW 3.5 mph - 0.00 in Snow Light Snow
9:08 AM 15.8 °F 7.2 °F 12.2 °F 86% 30.03 in 6.0 mi NNW 5.8 mph - N/A Snow Light Snow
9:13 AM 15.8 °F 7.2 °F 12.2 °F 86% 30.03 in 6.0 mi Variable 5.8 mph - N/A Snow Light Snow
9:33 AM 15.8 °F 3.4 °F 12.2 °F 86% 30.04 in 2.5 mi North 10.4 mph - N/A Snow Light Snow
9:38 AM 15.8 °F 4.2 °F 12.2 °F 86% 30.05 in 1.8 mi North 9.2 mph - N/A Snow Light Snow
9:43 AM 14.0 °F 2.9 °F 12.2 °F 93% 30.05 in 2.0 mi NNE 8.1 mph - N/A Snow Light Snow
9:48 AM 14.0 °F 2.0 °F 12.2 °F 93% 30.06 in 3.0 mi NNE 9.2 mph - N/A Snow Light Snow
9:58 AM 14.2 °F 2.2 °F 11.1 °F 88% 30.10 in 3.0 mi NNE 9.2 mph - 0.00 in Snow Light Snow
10:03 AM 14.0 °F 5.1 °F 10.4 °F 86% 30.06 in 4.0 mi North 5.8 mph - N/A Snow Light Snow
10:13 AM 14.0 °F 1.2 °F 10.4 °F 86% 30.07 in 8.0 mi NNE 10.4 mph - N/A Snow Light Snow
10:23 AM 14.0 °F 1.2 °F 10.4 °F 86% 30.07 in 7.0 mi NNE 10.4 mph - N/A Snow Light Snow
10:33 AM 14.0 °F 1.2 °F 8.6 °F 79% 30.07 in 10.0 mi NNE 10.4 mph - N/A Snow Light Snow
10:38 AM 14.0 °F 1.2 °F 8.6 °F 79% 30.07 in 7.0 mi NNE 10.4 mph - N/A Snow Light Snow
10:53 AM 14.0 °F 2.9 °F 8.6 °F 79% 30.08 in 3.0 mi NNE 8.1 mph - N/A Snow Light Snow
10:58 AM 13.5 °F 1.3 °F 9.3 °F 84% 30.12 in 2.5 mi North 9.2 mph - 0.00 in Snow Light Snow
11:03 AM 14.0 °F 2.0 °F 8.6 °F 79% 30.08 in 3.0 mi North 9.2 mph - N/A Snow Light Snow
11:13 AM 14.0 °F 2.9 °F 8.6 °F 79% 30.08 in 1.8 mi NNE 8.1 mph - N/A Snow Light Snow
11:18 AM 14.0 °F 3.9 °F 10.4 °F 86% 30.07 in 1.8 mi North 6.9 mph - N/A Snow Light Snow
11:23 AM 14.0 °F 2.9 °F 10.4 °F 86% 30.07 in 3.0 mi NNW 8.1 mph - N/A Snow Light Snow
11:28 AM 14.0 °F 2.9 °F 8.6 °F 79% 30.08 in 5.0 mi North 8.1 mph - N/A Snow Light Snow
11:43 AM 14.0 °F 3.9 °F 8.6 °F 79% 30.08 in 3.0 mi Variable 6.9 mph - N/A Snow Light Snow
11:58 AM 13.6 °F 2.5 °F 9.3 °F 83% 30.13 in 8.0 mi North 8.1 mph - 0.00 in Snow Light Snow
12:57 PM 12.2 °F -1.0 °F 6.8 °F 79% 30.11 in 10.0 mi North 10.4 mph - N/A   Overcast
12:58 PM 12.2 °F -1.0 °F 6.8 °F 79% 30.15 in 10.0 mi North 10.4 mph - 0.00 in   Overcast
1:03 PM 12.2 °F -1.8 °F 5.0 °F 73% 30.11 in 10.0 mi North 11.5 mph - N/A   Overcast
1:58 PM 10.4 °F -2.4 °F 1.8 °F 68% 30.17 in 10.0 mi NNE 9.2 mph - 0.00 in   Mostly Cloudy
2:58 PM 9.5 °F 1.2 °F -0.8 °F 63% 30.21 in 10.0 mi North 4.6 mph - N/A   Partly Cloudy
3:58 PM 5.9 °F -5.8 °F -4.0 °F 64% 30.25 in 10.0 mi North 6.9 mph - N/A   Clear
4:58 PM 3.4 °F -8.9 °F -6.9 °F 62% 30.29 in 10.0 mi NNE 6.9 mph - N/A   Clear
5:58 PM 0.7 °F -10.7 °F -8.9 °F 64% 30.32 in 10.0 mi NE 5.8 mph - N/A   Clear
6:58 PM -2.9 °F -15.0 °F -10.7 °F 70% 30.35 in 10.0 mi NE 5.8 mph - N/A   Clear
7:58 PM -1.1 °F -16.6 °F -10.1 °F 66% 30.38 in 10.0 mi NE 9.2 mph - N/A   Clear
8:58 PM -3.5 °F -15.7 °F -11.4 °F 69% 30.41 in 10.0 mi ENE 5.8 mph - N/A   Clear
9:58 PM -4.9 °F -17.4 °F -12.8 °F 69% 30.43 in 10.0 mi ENE 5.8 mph - N/A   Clear
10:58 PM -6.3 °F - -12.1 °F 76% 30.46 in 10.0 mi ESE 2.3 mph - N/A   Clear
11:58 PM -8.7 °F -21.9 °F -14.1 °F 77% 30.48 in 10.0 mi East 5.8 mph - N/A   Clear